Location: Blienschwiller
(48.3416°N, 7.4182°E)
Time: 09:06:07
(UTC+00:00)

STARLINK-1080 - Pass Details

Date: 18 February 2020
Orbit: 379 x 380 km, 53.0° (Epoch: 04 April)

Event Time Altitude Azimuth Distance (km) Brightness Sun altitude
Exits shadow 04:20:46 18° 150° (SSE) 1,046 5.3 -22.7°
Drops below altitude 10° 04:23:34 10° 91° (E) 1,413 6.8 -22.2°
Enters shadow 05:18:58 -71° 242° (WSW) 12,423 10.4 -13.0°
Maximum altitude 05:56:51 81° 333° (NNW) 396 2.9 -6.7°
